Regional Weather Roundup
Issued by NWS Sioux Falls, SD

Home | Current Version | Previous Version | Text Only | Print | Product List | Glossary Off
Versions: 1 2 3 4 5 6 7 8 9 10 11 12 13 14 15 16 17 18 19 20 21 22 23 24 25 26 27 28 29 30 31 32 33 34 35 36 37 38 39 40 41 42 43 44 45 46 47 48 49 50

000
ASUS43 KFSD 041310
RWRFSD

WEATHER ROUNDUP FOR SE SOUTH DAKOTA/SW MINNESOTA/NW IOWA
NATIONAL WEATHER SERVICE SIOUX FALLS SD
800 AM CDT FRI SEP 04 2015

NOTE: "FAIR" INDICATES FEW OR NO CLOUDS BELOW 12,000 FEET WITH NO
SIGNIFICANT WEATHER AND OR OBSTRUCTIONS TO VISIBILITY.


SDZ038>040-050-052>070-041400-
SOUTHEAST SOUTH DAKOTA

CITY           SKY/WX    TMP DP  RH WIND       PRES   REMARKS
BROOKINGS      PTSUNNY   72  66  83 S14       29.85R
CHAMBERLAIN    CLOUDY    69  65  86 SE13      29.77R
HURON          CLOUDY    73  68  84 E8        29.76R
MADISON        FAIR      70  70 100 S9        29.83R
MITCHELL       CLOUDY    74  67  78 S14       29.80R
SIOUX FALLS    CLOUDY    74  66  76 S10       29.85R
WINNER         FAIR      74  61  63 S9        29.78R
YANKTON        PTSUNNY   77  64  65 S9G16     29.81S
$$

MNZ071-072-080-081-089-090-097-098-041400-
SOUTHWEST MINNESOTA

CITY           SKY/WX    TMP DP  RH WIND       PRES   REMARKS
FAIRMONT       SUNNY     72  64  78 S8        29.91R
JACKSON        SUNNY     72  68  88 S9        29.92R
LUVERNE        PTSUNNY   72  68  88 S9G16     29.88R
MARSHALL       SUNNY     73  64  73 S14       29.85R
MONTEVIDEO     SUNNY     73  72  94 S9        29.85R
PIPESTONE      PTSUNNY   72  66  83 S9        29.87R
REDWOOD FALLS  SUNNY     73  70  90 SE10      29.87R
TRACY          SUNNY     73  69  87 S13G18    29.87R
WINDOM         SUNNY     73  66  78 S10G16    29.90R
WORTHINGTON    MOSUNNY   72  64  78 S15       29.90R
$$

IAZ001>003-012>014-020>022-031-032-NEZ013-014-SDZ071-041400-
NORTHWEST IOWA

CITY           SKY/WX    TMP DP  RH WIND       PRES   REMARKS
CHEROKEE       PTSUNNY   73  70  89 S9        29.91R
DENISON        CLOUDY    73  68  83 S7G14     29.91S
ESTHERVILLE    SUNNY     69  68  96 S9        29.92R
LE MARS        CLOUDY    73  70  88 S10       29.89R
ORANGE CITY    LGT RAIN  72  70  94 S13       29.88S
SHELDON        MOSUNNY   72  68  88 S10G17    29.88S
SIOUX CITY     CLOUDY    72  66  81 SE10      29.88R
SPENCER        MOSUNNY   72  67  84 S8        29.91R
STORM LAKE     PTSUNNY   72  70  94 S8        29.93S
$$

ABBREVIATIONS USED IN REMARKS
   TC - TEMPERATURE IN CELSIUS
  WCI - WIND CHILL INDEX
   HX - HEAT INDEX
  VSB - VISIBILITY




USA.gov is the U.S. government's official web portal to all federal, state and local government web resources and services.